Regional Weather Roundup
Issued by NWS Newport/Morehead, NC

Current Version | Previous Version | Graphics & Text | Print | Product List | Glossary Off
Versions: 1 2 3 4 5 6 7 8 9 10 11 12 13 14 15 16 17 18 19 20 21 22 23 24 25 26 27 28 29 30 31 32 33 34 35 36 37 38 39 40 41 42 43 44 45 46 47 48 49 50

000
ASUS42 KMHX 091612
RWRMHX
WEATHER ROUNDUP FOR EASTERN NORTH CAROLINA
NATIONAL WEATHER SERVICE NEWPORT/MOREHEAD CITY NC
1100 AM EST FRI DEC 09 2016

NOTE: "FAIR" INDICATES FEW OR NO CLOUDS BELOW 12,000 FEET
WITH NO SIGNIFICANT WEATHER AND/OR OBSTRUCTIONS TO VISIBILITY

NCZ015>017-031-032-045>047-102-103-091700-
NORTH COAST

CITY           SKY/WX    TMP DP  RH WIND       PRES   REMARKS
EDENTON        SUNNY     40  20  43 NW13      30.37S
ELIZABETH CITY SUNNY     39  20  46 NW14      30.35S
KITTY HAWK     SUNNY     39  26  59 NW9G17    30.32S
MANTEO         SUNNY     39  23  51 N10G17    30.34S

$$

NCZ045>047-081-094-103-104-091700-
CENTRAL COAST

CITY           SKY/WX    TMP DP  RH WIND       PRES   REMARKS
FRISCO         SUNNY     43  23  45 VRB7      30.33S

$$

NCZ095-097-098-100-101-091700-
SOUTHERN COAST

CITY           SKY/WX    TMP DP  RH WIND       PRES   REMARKS
BEAUFORT       SUNNY     43  22  43 N12       30.35F
CEDAR ISLAND   NOT AVBL
JACKSONVILLE   SUNNY     41  18  39 NW10      30.37F
PINEY ISLAND   SUNNY    N/A N/A N/A NW16      30.35S
WILMINGTON     SUNNY     41  19  41 N12       30.39S


$$

NCZ011>013-027>030-043-044-078>080-089-090>093-098-091700-
COASTAL PLAIN

CITY           SKY/WX    TMP DP  RH WIND       PRES   REMARKS
AHOSKIE        SUNNY     37  16  43 NW5       30.38F
CLINTON        SUNNY     39  20  46 N7        30.42R
ELIZABETHTOWN  SUNNY     40  20  44 NW8       30.41S
GOLDSBORO      SUNNY     40  16  38 NW13      30.38R
GREENVILLE     SUNNY     37  19  48 N8        30.39S
HAVELOCK       SUNNY     41  20  43 N15       30.38S
KENANSVILLE    SUNNY     39  18  41 N10       30.41R HAZE
KINSTON        SUNNY     41  19  42 N10       30.40R
NEW BERN       SUNNY     40  20  44 NE9       30.38F
RICHLANDS      SUNNY     40  19  43 N8        30.39S
ROCKY MOUNT    SUNNY     38  18  44 NW10G21   30.41R
WASHINGTON     SUNNY     39  18  42 N9G16     30.38S
WHITEVILLE     SUNNY     40  19  42 NW5       30.41S

$$

AMZ130-135-150-152-154-156-158-170-250-252-270-ANZ085-086-088-633-658-670-091700-
MARINE OBSERVATIONS

STATION/POSITION TIME  TEMP    WIND        PRES    WAVE   SWELL
                       AIR SEA DIR/SP/G            HT/PER HT/PER
                 (UTC) (F)     (DEG/KT/KT) (MB)    (FT/S) (FT/S)
CHESAPEAKE LIGHT NOT AVBL
64 E VA BEACH    1550   40 58  340/ 17/ 25 1025.2    6/ 7   2/11
DUCK             1548   37 53  320/ 15/ 20 1026.4
2 E DUCK         NOT AVBL
OREGON INLET     1542   39 52  320/ 12/ 19 1026.9
13E OREGON INLT  NOT AVBL
HATTERAS CG      1548   40 55  340/ 13/ 19 1026.7
DIAMOND BUOY     1550   42 75  350/ 17/ 25 1026.4    5/ 8   3/ 8
CAPE LOOKOUT     1600   40     340/ 12/ 15 1027.4
BEAUFORT LAB     1548   39 52  360/ 11/ 15 1026.9
30 SE NEW RVR IN 1508   42 69   10/ 16/ 25 1028.1
30 SE NEW RVR IN NOT AVBL
27 SE WRIGHTSVLE 1508   43 67   20/ 16/ 25 1028.1
5 SE WRIGHTSVLE  1508   38 61  360/ 19/ 31 1028.6
225 S CAPE HAT   1450   62 73  350/ 17/ 23 1022.8    7/ 8   3/11
41 SE CHARLESTON 1450   50 73  360/ 17/ 23 1028.2    6/ 7   2/14

$$



USA.gov is the U.S. government's official web portal to all federal, state and local government web resources and services.